Location: Stara Lesna
(49.1528°N, 20.2911°E)
Time: 03:30:29
(UTC+02:00)

Cosmos 1378 Rocket - Pass Details

Date: 13 July 2020
Orbit: 602 x 626 km, 82.5° (Epoch: 11 August)

Event Time Altitude Azimuth Distance (km) Brightness Sun altitude
Rises 04:00:11 0° 345° (NNW) 2,899 7.4 -6.8°
Reaches altitude 10° 04:02:28 10° 339° (NNW) 1,992 6.5 -6.6°
Maximum altitude 04:06:41 47° 267° (W) 829 3.9 -6.1°
Drops below altitude 10° 04:10:55 10° 193° (SSW) 1,989 5.7 -5.6°
Sets 04:13:11 0° 188° (S) 2,893 6.5 -5.3°
